Time,TemperatureF,DewpointF,PressureIn,WindDirection,WindDirectionDegrees,WindSpeedMPH,WindSpeedGustMPH,Humidity,HourlyPrecipIn,Conditions,Clouds,dailyrainin,SoftwareType,DateUTC
2013-10-13 00:07:00,39.4,37.0,30.05,North,1,0.0,0.0,92,0.00,,,0.00,weatherlink.com 1.10,2013-10-13 06:07:00,
2013-10-13 00:22:00,38.6,37.0,30.05,North,1,0.0,0.0,92,0.00,,,0.00,weatherlink.com 1.10,2013-10-13 06:22:00,
2013-10-13 00:37:00,38.0,36.0,30.04,North,1,0.0,1.0,92,0.00,,,0.00,weatherlink.com 1.10,2013-10-13 06:37:00,
2013-10-13 00:52:00,38.2,37.0,30.04,North,1,0.0,0.0,94,0.00,,,0.00,weatherlink.com 1.10,2013-10-13 06:52:00,
2013-10-13 01:07:00,37.9,36.0,30.04,North,359,0.0,1.0,93,0.00,,,0.00,weatherlink.com 1.10,2013-10-13 07:07:00,
2013-10-13 01:22:00,36.7,35.0,30.04,North,1,0.0,0.0,93,0.00,,,0.00,weatherlink.com 1.10,2013-10-13 07:22:00,
2013-10-13 01:37:00,35.9,34.0,30.05,North,1,0.0,0.0,94,0.00,,,0.00,weatherlink.com 1.10,2013-10-13 07:37:00,
2013-10-13 01:52:00,35.9,34.0,30.05,North,1,0.0,0.0,94,0.00,,,0.00,weatherlink.com 1.10,2013-10-13 07:52:00,
2013-10-13 02:07:00,36.3,35.0,30.06,North,1,0.0,0.0,95,0.00,,,0.00,weatherlink.com 1.10,2013-10-13 08:07:00,
2013-10-13 02:22:00,36.1,35.0,30.06,North,1,0.0,0.0,95,0.00,,,0.00,weatherlink.com 1.10,2013-10-13 08:22:00,
2013-10-13 02:37:00,35.7,34.0,30.05,North,1,0.0,0.0,94,0.00,,,0.00,weatherlink.com 1.10,2013-10-13 08:37:00,
2013-10-13 02:52:00,35.8,35.0,30.05,North,1,0.0,1.0,95,0.00,,,0.00,weatherlink.com 1.10,2013-10-13 08:52:00,
2013-10-13 03:07:00,35.2,34.0,30.05,North,1,0.0,0.0,95,0.00,,,0.00,weatherlink.com 1.10,2013-10-13 09:07:00,
2013-10-13 03:22:00,34.4,33.0,30.05,North,359,0.0,0.0,95,0.00,,,0.00,weatherlink.com 1.10,2013-10-13 09:22:00,
2013-10-13 03:37:00,34.6,33.0,30.06,North,1,0.0,0.0,95,0.00,,,0.00,weatherlink.com 1.10,2013-10-13 09:37:00,
2013-10-13 03:52:00,34.3,33.0,30.06,North,359,0.0,0.0,95,0.00,,,0.00,weatherlink.com 1.10,2013-10-13 09:52:00,
2013-10-13 04:07:00,34.9,34.0,30.06,North,1,0.0,0.0,96,0.00,,,0.00,weatherlink.com 1.10,2013-10-13 10:07:00,
2013-10-13 04:22:00,35.1,34.0,30.06,WNW,300,0.0,1.0,96,0.00,,,0.00,weatherlink.com 1.10,2013-10-13 10:22:00,
2013-10-13 04:37:00,35.6,35.0,30.06,West,273,0.0,1.0,96,0.00,,,0.00,weatherlink.com 1.10,2013-10-13 10:37:00,
2013-10-13 04:52:00,36.0,35.0,30.06,West,263,0.0,1.0,95,0.00,,,0.00,weatherlink.com 1.10,2013-10-13 10:52:00,
2013-10-13 05:07:00,36.0,35.0,30.05,West,263,0.0,0.0,95,0.00,,,0.00,weatherlink.com 1.10,2013-10-13 11:07:00,
2013-10-13 05:22:00,35.2,34.0,30.06,West,263,0.0,1.0,94,0.00,,,0.00,weatherlink.com 1.10,2013-10-13 11:22:00,
2013-10-13 05:37:00,34.5,33.0,30.06,West,263,0.0,0.0,94,0.00,,,0.00,weatherlink.com 1.10,2013-10-13 11:37:00,
2013-10-13 05:52:00,33.9,33.0,30.06,West,263,0.0,0.0,95,0.00,,,0.00,weatherlink.com 1.10,2013-10-13 11:52:00,
2013-10-13 06:07:00,34.2,33.0,30.06,West,263,0.0,0.0,95,0.00,,,0.00,weatherlink.com 1.10,2013-10-13 12:07:00,
2013-10-13 06:22:00,34.3,33.0,30.06,West,262,0.0,0.0,95,0.00,,,0.00,weatherlink.com 1.10,2013-10-13 12:22:00,
2013-10-13 06:37:00,34.3,33.0,30.06,WSW,252,0.0,0.0,95,0.00,,,0.00,weatherlink.com 1.10,2013-10-13 12:37:00,
2013-10-13 06:52:00,33.7,33.0,30.07,WSW,252,0.0,0.0,95,0.00,,,0.00,weatherlink.com 1.10,2013-10-13 12:52:00,
2013-10-13 07:07:00,33.2,32.0,30.07,WSW,252,0.0,1.0,95,0.00,,,0.00,weatherlink.com 1.10,2013-10-13 13:07:00,
2013-10-13 07:22:00,33.9,33.0,30.07,WSW,252,0.0,0.0,96,0.00,,,0.00,weatherlink.com 1.10,2013-10-13 13:22:00,
2013-10-13 07:37:00,35.0,34.0,30.07,WSW,252,0.0,1.0,95,0.00,,,0.00,weatherlink.com 1.10,2013-10-13 13:37:00,
2013-10-13 07:52:00,36.6,35.0,30.07,WSW,239,0.0,1.0,93,0.00,,,0.00,weatherlink.com 1.10,2013-10-13 13:52:00,
2013-10-13 08:07:00,38.8,36.0,30.07,WSW,239,0.0,1.0,91,0.00,,,0.00,weatherlink.com 1.10,2013-10-13 14:07:00,
2013-10-13 08:23:00,41.1,38.0,30.07,WSW,239,0.0,1.0,88,0.00,,,0.00,weatherlink.com 1.10,2013-10-13 14:23:00,
2013-10-13 08:38:00,44.8,39.0,30.07,WSW,239,0.0,0.0,81,0.00,,,0.00,weatherlink.com 1.10,2013-10-13 14:38:00,
2013-10-13 08:53:00,47.4,40.0,30.07,ENE,77,0.0,1.0,74,0.00,,,0.00,weatherlink.com 1.10,2013-10-13 14:53:00,
2013-10-13 09:08:00,45.8,38.0,30.07,NNE,25,0.0,4.0,74,0.00,,,0.00,weatherlink.com 1.10,2013-10-13 15:08:00,
2013-10-13 09:23:00,46.4,39.0,30.07,East,96,0.0,3.0,74,0.00,,,0.00,weatherlink.com 1.10,2013-10-13 15:23:00,
2013-10-13 09:38:00,48.2,39.0,30.07,NE,36,0.0,2.0,70,0.00,,,0.00,weatherlink.com 1.10,2013-10-13 15:38:00,
2013-10-13 09:53:00,49.0,39.0,30.07,NE,50,1.0,3.0,69,0.00,,,0.00,weatherlink.com 1.10,2013-10-13 15:53:00,
2013-10-13 10:08:00,49.7,40.0,30.06,ESE,108,2.0,2.0,69,0.00,,,0.00,weatherlink.com 1.10,2013-10-13 16:08:00,
2013-10-13 10:23:00,50.6,41.0,30.06,East,101,3.0,4.0,69,0.00,,,0.00,weatherlink.com 1.10,2013-10-13 16:23:00,
2013-10-13 10:38:00,51.0,40.0,30.05,NNE,15,1.0,4.0,65,0.00,,,0.00,weatherlink.com 1.10,2013-10-13 16:38:00,
2013-10-13 10:53:00,51.9,40.0,30.04,NNE,12,3.0,4.0,63,0.00,,,0.00,weatherlink.com 1.10,2013-10-13 16:53:00,
2013-10-13 11:08:00,52.6,39.0,30.03,SE,130,0.0,4.0,61,0.00,,,0.00,weatherlink.com 1.10,2013-10-13 17:08:00,
2013-10-13 11:23:00,53.3,39.0,30.02,ENE,77,2.0,4.0,59,0.00,,,0.00,weatherlink.com 1.10,2013-10-13 17:23:00,
2013-10-13 11:38:00,54.3,40.0,30.02,NNE,29,3.0,5.0,58,0.00,,,0.00,weatherlink.com 1.10,2013-10-13 17:38:00,
2013-10-13 11:53:00,55.2,40.0,30.01,NW,314,0.0,6.0,57,0.00,,,0.00,weatherlink.com 1.10,2013-10-13 17:53:00,
2013-10-13 12:08:00,55.5,41.0,30.00,NNE,13,7.0,7.0,58,0.00,,,0.00,weatherlink.com 1.10,2013-10-13 18:08:00,
2013-10-13 12:23:00,55.9,41.0,29.99,North,355,4.0,7.0,58,0.00,,,0.00,weatherlink.com 1.10,2013-10-13 18:23:00,
2013-10-13 12:38:00,56.0,41.0,29.98,NNE,12,1.0,6.0,58,0.00,,,0.00,weatherlink.com 1.10,2013-10-13 18:38:00,
2013-10-13 12:53:00,56.6,40.0,29.97,North,1,6.0,6.0,55,0.00,,,0.00,weatherlink.com 1.10,2013-10-13 18:53:00,
2013-10-13 13:08:00,56.9,41.0,29.95,North,8,3.0,9.0,55,0.00,,,0.00,weatherlink.com 1.10,2013-10-13 19:08:00,
2013-10-13 13:23:00,58.0,41.0,29.95,NNE,18,0.0,7.0,53,0.00,,,0.00,weatherlink.com 1.10,2013-10-13 19:23:00,
2013-10-13 13:38:00,58.8,42.0,29.93,ENE,63,0.0,7.0,54,0.00,,,0.00,weatherlink.com 1.10,2013-10-13 19:38:00,
2013-10-13 13:54:00,59.5,42.0,29.92,North,356,2.0,5.0,52,0.00,,,0.00,weatherlink.com 1.10,2013-10-13 19:54:00,
2013-10-13 14:09:00,60.0,43.0,29.91,WNW,293,0.0,6.0,54,0.00,,,0.00,weatherlink.com 1.10,2013-10-13 20:09:00,
2013-10-13 14:24:00,59.7,42.0,29.91,NNE,20,1.0,4.0,52,0.00,,,0.00,weatherlink.com 1.10,2013-10-13 20:24:00,
2013-10-13 14:39:00,60.1,42.0,29.90,North,349,3.0,6.0,52,0.00,,,0.00,weatherlink.com 1.10,2013-10-13 20:39:00,
2013-10-13 14:54:00,60.2,43.0,29.89,NNE,21,5.0,8.0,53,0.00,,,0.00,weatherlink.com 1.10,2013-10-13 20:54:00,
2013-10-13 15:09:00,60.9,42.0,29.89,NW,311,0.0,7.0,51,0.00,,,0.00,weatherlink.com 1.10,2013-10-13 21:09:00,
2013-10-13 15:24:00,61.3,43.0,29.88,WNW,291,0.0,6.0,51,0.00,,,0.00,weatherlink.com 1.10,2013-10-13 21:24:00,
2013-10-13 15:39:00,62.1,43.0,29.88,NNE,27,1.0,3.0,50,0.00,,,0.00,weatherlink.com 1.10,2013-10-13 21:39:00,
2013-10-13 15:54:00,62.1,43.0,29.87,NNW,333,1.0,4.0,50,0.00,,,0.00,weatherlink.com 1.10,2013-10-13 21:54:00,
2013-10-13 16:09:00,62.0,43.0,29.87,NNE,19,4.0,5.0,51,0.00,,,0.00,weatherlink.com 1.10,2013-10-13 22:09:00,
2013-10-13 16:24:00,61.9,43.0,29.86,NNW,338,0.0,6.0,51,0.00,,,0.00,weatherlink.com 1.10,2013-10-13 22:24:00,
2013-10-13 16:39:00,60.8,43.0,29.86,WNW,287,4.0,8.0,52,0.00,,,0.00,weatherlink.com 1.10,2013-10-13 22:39:00,
2013-10-13 16:54:00,61.3,43.0,29.85,WNW,284,0.0,5.0,52,0.00,,,0.00,weatherlink.com 1.10,2013-10-13 22:54:00,
2013-10-13 17:09:00,60.7,43.0,29.85,WNW,298,1.0,5.0,52,0.00,,,0.00,weatherlink.com 1.10,2013-10-13 23:09:00,
2013-10-13 17:24:00,60.3,43.0,29.85,WNW,290,0.0,5.0,53,0.00,,,0.00,weatherlink.com 1.10,2013-10-13 23:24:00,
2013-10-13 17:39:00,59.1,43.0,29.85,WNW,299,1.0,3.0,55,0.00,,,0.00,weatherlink.com 1.10,2013-10-13 23:39:00,
2013-10-13 17:54:00,57.9,43.0,29.85,NE,41,1.0,4.0,58,0.00,,,0.00,weatherlink.com 1.10,2013-10-13 23:54:00,
2013-10-13 18:09:00,56.7,43.0,29.85,NW,317,0.0,1.0,61,0.00,,,0.00,weatherlink.com 1.10,2013-10-14 00:09:00,
2013-10-13 18:24:00,55.8,43.0,29.85,West,278,1.0,3.0,63,0.00,,,0.00,weatherlink.com 1.10,2013-10-14 00:24:00,
2013-10-13 18:39:00,55.4,43.0,29.86,NNE,25,0.0,3.0,64,0.00,,,0.00,weatherlink.com 1.10,2013-10-14 00:39:00,
2013-10-13 18:54:00,55.2,44.0,29.85,NE,39,0.0,2.0,65,0.00,,,0.00,weatherlink.com 1.10,2013-10-14 00:54:00,
2013-10-13 19:09:00,54.8,44.0,29.85,North,8,0.0,1.0,66,0.00,,,0.00,weatherlink.com 1.10,2013-10-14 01:09:00,
2013-10-13 19:24:00,54.5,43.0,29.86,West,259,1.0,4.0,66,0.00,,,0.00,weatherlink.com 1.10,2013-10-14 01:24:00,
2013-10-13 19:39:00,54.0,44.0,29.85,West,259,1.0,1.0,68,0.00,,,0.00,weatherlink.com 1.10,2013-10-14 01:39:00,
2013-10-13 19:54:00,53.9,43.0,29.85,West,259,0.0,1.0,68,0.00,,,0.00,weatherlink.com 1.10,2013-10-14 01:54:00,
2013-10-13 20:09:00,53.9,43.0,29.86,NW,312,0.0,1.0,68,0.00,,,0.00,weatherlink.com 1.10,2013-10-14 02:09:00,
2013-10-13 20:24:00,53.4,44.0,29.87,SW,226,1.0,1.0,71,0.00,,,0.00,weatherlink.com 1.10,2013-10-14 02:24:00,
2013-10-13 20:39:00,53.4,44.0,29.86,SSE,148,0.0,1.0,71,0.00,,,0.00,weatherlink.com 1.10,2013-10-14 02:39:00,
2013-10-13 20:54:00,52.2,45.0,29.84,SSE,149,0.0,0.0,76,0.00,,,0.00,weatherlink.com 1.10,2013-10-14 02:54:00,
2013-10-13 21:09:00,49.8,44.0,29.84,SSE,149,0.0,0.0,80,0.00,,,0.00,weatherlink.com 1.10,2013-10-14 03:09:00,
2013-10-13 21:24:00,50.0,44.0,29.84,WSW,238,0.0,1.0,81,0.00,,,0.00,weatherlink.com 1.10,2013-10-14 03:24:00,
2013-10-13 21:39:00,49.7,44.0,29.82,WSW,238,0.0,0.0,80,0.00,,,0.00,weatherlink.com 1.10,2013-10-14 03:39:00,
2013-10-13 21:54:00,48.6,44.0,29.83,WSW,238,0.0,1.0,83,0.00,,,0.00,weatherlink.com 1.10,2013-10-14 03:54:00,
2013-10-13 22:09:00,48.6,43.0,29.83,SSW,205,0.0,1.0,82,0.00,,,0.00,weatherlink.com 1.10,2013-10-14 04:09:00,
2013-10-13 22:24:00,48.3,43.0,29.83,SSW,205,0.0,0.0,82,0.00,,,0.00,weatherlink.com 1.10,2013-10-14 04:24:00,
2013-10-13 22:39:00,47.3,42.0,29.82,SE,127,0.0,0.0,83,0.00,,,0.00,weatherlink.com 1.10,2013-10-14 04:39:00,
2013-10-13 22:54:00,47.5,43.0,29.82,WNW,294,3.0,4.0,85,0.00,,,0.00,weatherlink.com 1.10,2013-10-14 04:54:00,
2013-10-13 23:09:00,48.0,43.0,29.81,ESE,107,0.0,1.0,83,0.00,,,0.00,weatherlink.com 1.10,2013-10-14 05:09:00,
2013-10-13 23:25:00,46.8,43.0,29.79,WSW,248,0.0,1.0,85,0.00,,,0.00,weatherlink.com 1.10,2013-10-14 05:25:00,
2013-10-13 23:40:00,46.3,42.0,29.79,WSW,248,0.0,0.0,85,0.00,,,0.00,weatherlink.com 1.10,2013-10-14 05:40:00,
2013-10-13 23:55:00,45.4,42.0,29.78,WSW,248,0.0,0.0,87,0.00,,,0.00,weatherlink.com 1.10,2013-10-14 05:55:00,